| time (UTC) | temp F | wind direction | speed knots | gust knots | rain 1hr in | rain 24hr in | rain mn in | humidity % | barometer mb |
| 20260504100537 | 60 | 344 | 0.9 | 8.7 | 0.00 | 0.36 | 0.00 | 100 | 1014.9 |
| 20260504081529 | 60 | 57 | 1.7 | 9.6 | 0.00 | 0.36 | 0.00 | 100 | 1014.7 |
| 20260504081031 | 60 | 30 | 3.5 | 8.7 | 0.00 | 0.36 | 0.00 | 100 | 1014.8 |
| 20260504080526 | 60 | 67 | 1.7 | 10.4 | 0.00 | 0.36 | 0.00 | 100 | 1014.8 |
| 20260504050506 | 60 | 360 | 4.3 | 12.2 | 0.00 | 0.36 | 0.00 | 100 | 1016.8 |
| 20260504050002 | 60 | 43 | 5.2 | 11.3 | 0.00 | 0.36 | 0.36 | 100 | 1016.9 |
| 20260504045502 | 59 | 61 | 5.2 | 11.3 | 0.00 | 0.36 | 0.36 | 100 | 1017.1 |
| 20260504045002 | 59 | 64 | 6.1 | 15.6 | 0.00 | 0.36 | 0.36 | 100 | 1017.1 |
| 20260504044502 | 59 | 50 | 4.3 | 15.6 | 0.00 | 0.36 | 0.36 | 100 | 1017.1 |
| 20260504044003 | 59 | 86 | 5.2 | 13.9 | 0.00 | 0.36 | 0.36 | 100 | 1017.1 |
| 20260504043502 | 59 | 58 | 6.1 | 11.3 | 0.00 | 0.36 | 0.36 | 100 | 1017.0 |
| 20260504043002 | 59 | 96 | 4.3 | 10.4 | 0.00 | 0.36 | 0.36 | 100 | 1016.8 |
| 20260504042559 | 59 | 87 | 5.2 | 12.2 | 0.00 | 0.36 | 0.36 | 100 | 1016.8 |
| 20260504042059 | 59 | 111 | 4.3 | 12.2 | 0.00 | 0.36 | 0.36 | 100 | 1016.8 |
| 20260504041600 | 59 | 67 | 3.5 | 11.3 | 0.00 | 0.36 | 0.36 | 100 | 1016.7 |
| 20260504041059 | 59 | 105 | 3.5 | 11.3 | 0.00 | 0.36 | 0.36 | 100 | 1016.6 |
| 20260504040559 | 59 | 63 | 2.6 | 8.7 | 0.00 | 0.36 | 0.36 | 100 | 1016.6 |
| 20260504040105 | 59 | 52 | 1.7 | 7.8 | 0.00 | 0.36 | 0.36 | 100 | 1016.6 |
| 20260504035558 | 59 | 57 | 1.7 | 7.8 | 0.00 | 0.36 | 0.36 | 100 | 1016.8 |
| 20260504035101 | 59 | 76 | 0.9 | 5.2 | 0.00 | 0.36 | 0.36 | 100 | 1016.8 |
| 20260504034559 | 60 | 30 | 0.9 | 5.2 | 0.00 | 0.36 | 0.36 | 100 | 1016.7 |
| 20260504034058 | 60 | 36 | 1.7 | 5.2 | 0.00 | 0.36 | 0.36 | 100 | 1016.7 |
| 20260504033558 | 60 | 36 | 0.0 | 7.0 | 0.00 | 0.36 | 0.36 | 100 | 1016.5 |
| 20260504033058 | 60 | 355 | 0.9 | 7.0 | 0.00 | 0.36 | 0.36 | 100 | 1016.4 |
| 20260504032558 | 60 | 63 | 1.7 | 9.6 | 0.00 | 0.36 | 0.36 | 100 | 1016.3 |
| 20260504032101 | 60 | 66 | 0.9 | 9.6 | 0.00 | 0.36 | 0.36 | 100 | 1016.4 |
| 20260504031628 | 60 | 41 | 1.7 | 9.6 | 0.00 | 0.36 | 0.36 | 100 | 1016.5 |
| 20260504031057 | 60 | 19 | 1.7 | 9.6 | 0.00 | 0.36 | 0.36 | 100 | 1016.5 |
| 20260504030557 | 61 | 34 | 1.7 | 7.0 | 0.01 | 0.36 | 0.36 | 100 | 1016.6 |
| 20260504030057 | 61 | 59 | 0.9 | 11.3 | 0.02 | 0.36 | 0.36 | 100 | 1016.5 |
| 20260504025557 | 61 | 50 | 1.7 | 11.3 | 0.02 | 0.36 | 0.36 | 100 | 1016.4 |
| 20260504025057 | 61 | 28 | 2.6 | 8.7 | 0.03 | 0.36 | 0.36 | 100 | 1016.2 |
| 20260504024556 | 61 | 58 | 0.0 | 6.1 | 0.05 | 0.36 | 0.36 | 100 | 1016.1 |
| 20260504024056 | 60 | 90 | 2.6 | 7.0 | 0.14 | 0.36 | 0.36 | 100 | 1016.1 |
| 20260504023556 | 60 | 82 | 3.5 | 8.7 | 0.26 | 0.36 | 0.36 | 100 | 1016.2 |
| 20260504023058 | 60 | 83 | 2.6 | 8.7 | 0.31 | 0.36 | 0.36 | 100 | 1016.3 |
| 20260504022556 | 59 | 88 | 5.2 | 8.7 | 0.36 | 0.36 | 0.36 | 100 | 1016.4 |
| 20260504022055 | 59 | 84 | 4.3 | 8.7 | 0.36 | 0.36 | 0.36 | 100 | 1016.4 |
| 20260504021608 | 59 | 104 | 3.5 | 10.4 | 0.36 | 0.36 | 0.36 | 100 | 1016.4 |
| 20260504021057 | 59 | 72 | 4.3 | 13.9 | 0.36 | 0.36 | 0.36 | 100 | 1016.3 |
| 20260504020556 | 59 | 86 | 5.2 | 15.6 | 0.35 | 0.35 | 0.35 | 100 | 1016.1 |
| 20260504020100 | 58 | 92 | 10.4 | 15.6 | 0.35 | 0.35 | 0.35 | 100 | 1016.3 |
| 20260504015555 | 58 | 60 | 10.4 | 14.8 | 0.35 | 0.35 | 0.35 | 100 | 1016.3 |
| 20260504015054 | 59 | 105 | 9.6 | 14.8 | 0.33 | 0.33 | 0.33 | 100 | 1016.4 |
| 20260504014553 | 59 | 95 | 7.8 | 31.3 | 0.31 | 0.31 | 0.31 | 100 | 1016.6 |
| 20260504014050 | 60 | 89 | 14.8 | 40.8 | 0.21 | 0.21 | 0.21 | 100 | 1016.5 |
| 20260504013550 | 62 | 84 | 26.9 | 40.8 | 0.09 | 0.09 | 0.09 | 100 | 1015.4 |
| 20260504013514 | 63 | 64 | 24.3 | 40.8 | 0.09 | 0.09 | 0.09 | 100 | 1015.5 |
| 20260504013012 | 68 | 31 | 11.3 | 20.0 | 0.00 | 0.00 | 0.00 | 100 | 1015.8 |
| 20260504012549 | 68 | 9 | 4.3 | 11.3 | 0.00 | 0.00 | 0.00 | 100 | 1015.7 |
| 20260504012048 | 68 | 355 | 4.3 | 9.6 | 0.00 | 0.00 | 0.00 | 100 | 1015.5 |
| 20260504011550 | 69 | 61 | 2.6 | 8.7 | 0.00 | 0.00 | 0.00 | 100 | 1015.3 |
| 20260504011048 | 69 | 46 | 2.6 | 6.1 | 0.00 | 0.00 | 0.00 | 100 | 1015.3 |
| 20260504010547 | 69 | 12 | 2.6 | 6.1 | 0.00 | 0.00 | 0.00 | 100 | 1015.2 |
| 20260504010047 | 69 | 96 | 0.9 | 7.0 | 0.00 | 0.00 | 0.00 | 100 | 1015.1 |
| 20260504005547 | 69 | 292 | 2.6 | 9.6 | 0.00 | 0.00 | 0.00 | 100 | 1015.1 |
| 20260504005047 | 69 | 28 | 3.5 | 9.6 | 0.00 | 0.00 | 0.00 | 100 | 1015.0 |
| 20260504004547 | 70 | 56 | 2.6 | 7.8 | 0.00 | 0.00 | 0.00 | 100 | 1014.9 |
| 20260504004047 | 70 | 5 | 2.6 | 7.8 | 0.00 | 0.00 | 0.00 | 100 | 1014.7 |
| 20260504003546 | 70 | 38 | 2.6 | 8.7 | 0.00 | 0.00 | 0.00 | 100 | 1014.8 |
| 20260504003048 | 70 | 73 | 4.3 | 8.7 | 0.00 | 0.00 | 0.00 | 100 | 1014.6 |
| 20260504002546 | 70 | 46 | 3.5 | 8.7 | 0.00 | 0.00 | 0.00 | 100 | 1014.6 |
| 20260504002046 | 70 | 59 | 4.3 | 11.3 | 0.00 | 0.00 | 0.00 | 100 | 1014.5 |
| 20260504001604 | 70 | 65 | 4.3 | 11.3 | 0.00 | 0.00 | 0.00 | 100 | 1014.5 |
| 20260504001045 | 70 | 62 | 0.9 | 6.1 | 0.00 | 0.00 | 0.00 | 100 | 1014.4 |
| 20260504000545 | 71 | 329 | 2.6 | 10.4 | 0.00 | 0.00 | 0.00 | 100 | 1014.3 |
| 20260504000045 | 71 | 21 | 1.7 | 10.4 | 0.00 | 0.00 | 0.00 | 100 | 1014.1 |
| 20260503235545 | 71 | 59 | 3.5 | 9.6 | 0.00 | 0.00 | 0.00 | 100 | 1014.0 |
| 20260503235047 | 71 | 46 | 2.6 | 8.7 | 0.00 | 0.00 | 0.00 | 100 | 1013.8 |
| 20260503234545 | 71 | 83 | 3.5 | 9.6 | 0.00 | 0.00 | 0.00 | 100 | 1013.7 |
| 20260503234045 | 71 | 67 | 3.5 | 9.6 | 0.00 | 0.00 | 0.00 | 100 | 1013.5 |
| 20260503233544 | 71 | 71 | 2.6 | 6.1 | 0.00 | 0.00 | 0.00 | 100 | 1013.5 |
| 20260503233045 | 71 | 79 | 2.6 | 8.7 | 0.00 | 0.00 | 0.00 | 100 | 1013.2 |
| 20260503232544 | 71 | 86 | 2.6 | 6.1 | 0.00 | 0.00 | 0.00 | 100 | 1013.3 |
| 20260503232044 | 72 | 61 | 3.5 | 7.8 | 0.00 | 0.00 | 0.00 | 100 | 1013.2 |
| 20260503231550 | 72 | 28 | 3.5 | 7.8 | 0.00 | 0.00 | 0.00 | 100 | 1013.0 |
| 20260503231044 | 72 | 19 | 0.0 | 4.3 | 0.00 | 0.00 | 0.00 | 100 | 1013.1 |
| 20260503230548 | 72 | 63 | 0.9 | 5.2 | 0.00 | 0.00 | 0.00 | 100 | 1013.2 |
| 20260503230046 | 72 | 34 | 2.6 | 5.2 | 0.00 | 0.00 | 0.00 | 100 | 1013.1 |
| 20260503225543 | 72 | 50 | 1.7 | 5.2 | 0.00 | 0.05 | 0.00 | 100 | 1012.9 |
| 20260503225043 | 72 | 55 | 1.7 | 8.7 | 0.00 | 0.05 | 0.00 | 100 | 1012.8 |
| 20260503224548 | 72 | 43 | 3.5 | 8.7 | 0.00 | 0.05 | 0.00 | 100 | 1012.7 |
| 20260503224044 | 73 | 22 | 2.6 | 7.0 | 0.00 | 0.05 | 0.00 | 100 | 1012.8 |
| 20260503223544 | 73 | 59 | 1.7 | 7.8 | 0.00 | 0.05 | 0.00 | 100 | 1012.9 |
| 20260503223044 | 73 | 5 | 4.3 | 7.8 | 0.00 | 0.05 | 0.00 | 100 | 1013.0 |
| 20260503222541 | 73 | 52 | 1.7 | 5.2 | 0.00 | 0.05 | 0.00 | 100 | 1013.0 |
| 20260503222041 | 73 | 355 | 0.9 | 3.5 | 0.00 | 0.05 | 0.00 | 100 | 1013.0 |
| 20260503221542 | 73 | 5 | 0.9 | 5.2 | 0.00 | 0.05 | 0.00 | 100 | 1012.8 |
| 20260503221043 | 72 | 19 | 1.7 | 5.2 | 0.00 | 0.05 | 0.00 | 100 | 1012.8 |
| 20260503220541 | 72 | 57 | 0.9 | 4.3 | 0.00 | 0.05 | 0.00 | 100 | 1012.9 |
| 20260503220041 | 72 | 285 | 1.7 | 5.2 | 0.00 | 0.05 | 0.00 | 100 | 1012.9 |
| 20260503215540 | 72 | 318 | 1.7 | 4.3 | 0.00 | 0.10 | 0.00 | 100 | 1013.0 |
| 20260503215040 | 72 | 304 | 0.9 | 2.6 | 0.00 | 0.10 | 0.00 | 100 | 1013.0 |
| 20260503214548 | 71 | 302 | 0.9 | 3.5 | 0.00 | 0.10 | 0.00 | 100 | 1013.0 |
| 20260503214039 | 71 | 302 | 1.7 | 3.5 | 0.00 | 0.10 | 0.00 | 100 | 1013.1 |
| 20260503213539 | 71 | 46 | 0.9 | 5.2 | 0.00 | 0.10 | 0.00 | 100 | 1013.1 |
| 20260503213101 | 71 | 33 | 1.7 | 5.2 | 0.00 | 0.10 | 0.00 | 100 | 1013.2 |
| 20260503212538 | 70 | 59 | 1.7 | 5.2 | 0.00 | 0.10 | 0.00 | 100 | 1013.3 |
| 20260503212038 | 70 | 78 | 2.6 | 7.0 | 0.00 | 0.10 | 0.00 | 100 | 1013.3 |
| 20260503211557 | 70 | 100 | 4.3 | 7.0 | 0.00 | 0.10 | 0.00 | 100 | 1013.4 |
| 20260503211042 | 70 | 100 | 2.6 | 7.8 | 0.00 | 0.10 | 0.00 | 100 | 1013.3 |
| 20260503210538 | 70 | 100 | 5.2 | 10.4 | 0.00 | 0.10 | 0.00 | 100 | 1013.3 |
| 20260503210038 | 70 | 107 | 7.0 | 13.0 | 0.00 | 0.10 | 0.00 | 100 | 1013.3 |
| 20260503205538 | 71 | 114 | 7.8 | 13.0 | 0.00 | 0.10 | 0.00 | 100 | 1013.3 |
| 20260503205041 | 72 | 99 | 2.6 | 7.0 | 0.00 | 0.10 | 0.00 | 100 | 1013.4 |
| 20260503204552 | 72 | 73 | 1.7 | 7.0 | 0.00 | 0.10 | 0.00 | 100 | 1013.3 |
| 20260503204039 | 72 | 98 | 2.6 | 7.0 | 0.00 | 0.10 | 0.00 | 100 | 1013.1 |
| 20260503203538 | 72 | 69 | 2.6 | 5.2 | 0.00 | 0.10 | 0.00 | 100 | 1013.2 |
| 20260503203039 | 72 | 78 | 1.7 | 5.2 | 0.00 | 0.10 | 0.00 | 100 | 1013.3 |
| 20260503202535 | 72 | 80 | 1.7 | 7.8 | 0.00 | 0.10 | 0.00 | 100 | 1013.2 |
| 20260503202035 | 72 | 42 | 2.6 | 7.8 | 0.00 | 0.10 | 0.00 | 100 | 1013.3 |
| 20260503201536 | 72 | 51 | 3.5 | 7.8 | 0.00 | 0.10 | 0.00 | 100 | 1013.5 |
| 20260503201035 | 72 | 79 | 3.5 | 7.8 | 0.00 | 0.10 | 0.00 | 100 | 1013.7 |
| 20260503200534 | 72 | 46 | 3.5 | 14.8 | 0.00 | 0.10 | 0.00 | 100 | 1013.7 |
| 20260503200035 | 72 | 61 | 2.6 | 14.8 | 0.00 | 0.10 | 0.00 | 100 | 1013.6 |
| 20260503195534 | 72 | 91 | 2.6 | 7.8 | 0.00 | 0.10 | 0.00 | 100 | 1013.5 |
| 20260503195034 | 72 | 54 | 2.6 | 8.7 | 0.00 | 0.10 | 0.00 | 100 | 1013.4 |
| 20260503194534 | 72 | 355 | 2.6 | 8.7 | 0.00 | 0.10 | 0.00 | 100 | 1013.3 |
| 20260503194034 | 72 | 5 | 3.5 | 10.4 | 0.00 | 0.10 | 0.00 | 100 | 1013.5 |
| 20260503193534 | 72 | 57 | 6.1 | 12.2 | 0.00 | 0.10 | 0.00 | 100 | 1013.7 |
| 20260503193034 | 72 | 32 | 6.1 | 12.2 | 0.00 | 0.10 | 0.00 | 100 | 1013.7 |
| 20260503192534 | 72 | 360 | 5.2 | 10.4 | 0.00 | 0.10 | 0.00 | 100 | 1013.4 |
| 20260503192033 | 72 | 355 | 5.2 | 9.6 | 0.00 | 0.10 | 0.00 | 100 | 1013.4 |
| 20260503191544 | 72 | 28 | 3.5 | 8.7 | 0.00 | 0.10 | 0.00 | 100 | 1013.4 |
| 20260503191032 | 72 | 355 | 4.3 | 8.7 | 0.00 | 0.10 | 0.00 | 100 | 1013.8 |
| 20260503190531 | 72 | 306 | 3.5 | 13.9 | 0.00 | 0.10 | 0.00 | 100 | 1013.9 |
| 20260503190034 | 72 | 360 | 4.3 | 13.9 | 0.00 | 0.10 | 0.00 | 100 | 1013.9 |
| 20260503185534 | 73 | 14 | 4.3 | 13.0 | 0.00 | 0.10 | 0.00 | 100 | 1013.7 |
| 20260503185034 | 73 | 19 | 3.5 | 8.7 | 0.00 | 0.10 | 0.00 | 100 | 1013.9 |
| 20260503184534 | 73 | 59 | 4.3 | 9.6 | 0.00 | 0.10 | 0.00 | 100 | 1014.0 |
| 20260503184031 | 74 | 360 | 3.5 | 8.7 | 0.00 | 0.10 | 0.00 | 100 | 1013.9 |
| 20260503183529 | 74 | 62 | 2.6 | 12.2 | 0.00 | 0.10 | 0.00 | 100 | 1013.9 |
| 20260503183039 | 75 | 22 | 4.3 | 12.2 | 0.00 | 0.10 | 0.00 | 100 | 1014.1 |
| 20260503182529 | 76 | 346 | 4.3 | 12.2 | 0.00 | 0.10 | 0.00 | 100 | 1014.1 |
| 20260503182030 | 76 | 360 | 3.5 | 13.9 | 0.00 | 0.10 | 0.00 | 100 | 1014.3 |
| 20260503181529 | 77 | 69 | 7.0 | 15.6 | 0.00 | 0.10 | 0.00 | 100 | 1014.4 |
| 20260503181029 | 76 | 5 | 7.0 | 15.6 | 0.00 | 0.10 | 0.00 | 100 | 1014.1 |
| 20260503180528 | 75 | 332 | 4.3 | 13.9 | 0.00 | 0.10 | 0.00 | 100 | 1014.1 |
| 20260503180033 | 74 | 355 | 3.5 | 11.3 | 0.00 | 0.10 | 0.00 | 100 | 1014.4 |
| 20260503175527 | 74 | 70 | 5.2 | 14.8 | 0.00 | 0.10 | 0.00 | 100 | 1014.6 |
| 20260503175027 | 75 | 30 | 8.7 | 14.8 | 0.00 | 0.10 | 0.00 | 100 | 1014.5 |
| 20260503174537 | 76 | 64 | 7.8 | 13.0 | 0.00 | 0.10 | 0.00 | 100 | 1014.6 |
| 20260503174027 | 76 | 40 | 3.5 | 11.3 | 0.00 | 0.10 | 0.00 | 100 | 1014.8 |
| 20260503173527 | 77 | 28 | 4.3 | 13.0 | 0.00 | 0.10 | 0.00 | 100 | 1014.9 |
| 20260503173027 | 77 | 11 | 3.5 | 13.0 | 0.00 | 0.10 | 0.00 | 100 | 1014.9 |
| 20260503172525 | 77 | 271 | 4.3 | 10.4 | 0.00 | 0.10 | 0.00 | 100 | 1015.0 |
| 20260503172025 | 77 | 341 | 5.2 | 12.2 | 0.00 | 0.10 | 0.00 | 100 | 1014.9 |
| 20260503171529 | 78 | 315 | 3.5 | 12.2 | 0.00 | 0.10 | 0.00 | 100 | 1014.9 |
| 20260503171031 | 78 | 28 | 4.3 | 11.3 | 0.00 | 0.10 | 0.00 | 100 | 1014.8 |
| 20260503170525 | 77 | 42 | 3.5 | 13.0 | 0.00 | 0.10 | 0.00 | 100 | 1015.0 |
| 20260503170126 | 78 | 324 | 6.1 | 13.0 | 0.00 | 0.10 | 0.00 | 100 | 1015.1 |
| 20260503151012 | 75 | 355 | 2.6 | 6.1 | 0.00 | 0.10 | 0.00 | 100 | 1015.3 |
| 20260503150514 | 74 | 68 | 0.0 | 7.8 | 0.00 | 0.10 | 0.00 | 100 | 1015.2 |
| 20260503131049 | 65 | 57 | 1.7 | 4.3 | 0.00 | 0.10 | 0.00 | 100 | 1015.5 |
| 20260503130549 | 64 | 57 | 1.7 | 8.7 | 0.00 | 0.10 | 0.00 | 100 | 1015.5 |
| 20260503110535 | 62 | 63 | 1.7 | 10.4 | 0.00 | 0.10 | 0.00 | 100 | 1015.1 |